#�ϑ�����,���ϕ���,���ϕ���,�ő啗��,�ő啗����������,�ő�u�ԕ���,�ő�u�ԕ�����������
#(�N����),(m/s)   ,(16����),(m/s)   ,(16����)        ,(m/s)       ,(16����)            
2018/1/27 0:01,3.3,11,3.7,11,3.8,11
2018/1/27 0:02,3.3,11,3.3,11,4.4,11
2018/1/27 0:03,3.4,10,3.4,11,3.5,10
2018/1/27 0:04,3.4,10,3.4,11,4.3,11
2018/1/27 0:05,3.2,10,3.4,11,2.1,9
2018/1/27 0:06,3,10,3.1,11,4.1,8
2018/1/27 0:07,2.6,10,3,11,2.5,10
2018/1/27 0:08,2.3,10,2.6,11,2.9,12
2018/1/27 0:09,2,10,2.3,11,3,10
2018/1/27 0:10,1.6,10,1.9,11,1.1,11
2018/1/27 0:11,1.6,11,1.6,11,2.4,10
2018/1/27 0:12,1.4,11,1.6,11,2.9,12
2018/1/27 0:13,1.3,11,1.4,10,1.1,12
2018/1/27 0:14,1.2,11,1.3,10,1.4,8
2018/1/27 0:15,1.1,11,1.1,10,2.5,9
2018/1/27 0:16,0.9,11,1.1,10,1.6,9
2018/1/27 0:17,0.9,12,0.9,10,2.9,16
2018/1/27 0:18,0.8,12,0.9,10,2.2,16
2018/1/27 0:19,0.9,13,0.9,10,3.5,16
2018/1/27 0:20,0.9,13,0.9,11,0.5,1
2018/1/27 0:21,0.9,13,0.9,11,3.8,11
2018/1/27 0:22,0.9,13,1,11,4.5,11
2018/1/27 0:23,0.9,14,0.9,11,0.5,16
2018/1/27 0:24,0.9,15,0.9,11,2.1,14
2018/1/27 0:25,0.9,15,0.9,11,1.3,13
2018/1/27 0:26,0.9,15,0.9,13,1.1,5
2018/1/27 0:27,0.8,15,0.9,13,2.4,16
2018/1/27 0:28,0.9,15,0.9,13,3.5,16
2018/1/27 0:29,1,15,1,13,3.9,1
2018/1/27 0:30,1,16,1,13,0.6,15
2018/1/27 0:31,0.8,16,1,13,1.5,15
2018/1/27 0:32,0.9,16,0.9,15,2.9,14
2018/1/27 0:33,1.1,15,1.1,15,3,12
2018/1/27 0:34,1.4,15,1.4,15,4.9,10
2018/1/27 0:35,1.5,15,1.5,15,4.1,11
2018/1/27 0:36,1.5,14,1.5,15,1.9,10
2018/1/27 0:37,1.5,14,1.5,15,1.3,6
2018/1/27 0:38,1.4,12,1.5,15,1.4,11
2018/1/27 0:39,1.3,11,1.4,15,1.3,11
2018/1/27 0:40,1.4,11,1.4,15,3,11
2018/1/27 0:41,1.5,11,1.6,11,2.7,10
2018/1/27 0:42,1.6,10,1.6,11,4.5,10
2018/1/27 0:43,1.6,10,1.6,11,5.1,10
2018/1/27 0:44,1.4,10,1.6,11,2.4,10
2018/1/27 0:45,1.4,10,1.4,11,2.5,9
2018/1/27 0:46,1.4,10,1.4,11,3.1,11
2018/1/27 0:47,1.6,11,1.6,11,4.5,15
2018/1/27 0:48,1.7,11,1.7,11,3.3,15
2018/1/27 0:49,1.7,11,1.7,11,1.5,7
2018/1/27 0:50,1.6,11,1.7,11,1.5,4
2018/1/27 0:51,1.6,12,1.6,11,3,16
2018/1/27 0:52,1.5,13,1.6,11,2,1
2018/1/27 0:53,1.4,15,1.5,11,2,1
2018/1/27 0:54,1.3,15,1.4,11,1.1,11
2018/1/27 0:55,1.1,15,1.3,11,0.8,9
2018/1/27 0:56,1.1,16,1.1,11,1,4
2018/1/27 0:57,0.9,16,1.1,11,1,2
2018/1/27 0:58,0.8,16,0.8,11,2.5,10
2018/1/27 0:59,0.8,16,0.9,11,2.5,7
2018/1/27 1:00,0.9,15,0.9,11,2.1,10
2018/1/27 1:01,0.9,13,0.9,12,2.5,11
2018/1/27 1:02,0.9,12,0.9,13,3.7,10
2018/1/27 1:03,0.9,11,0.9,15,2.5,13
2018/1/27 1:04,1,12,1,15,2.4,14
2018/1/27 1:05,1.1,12,1.1,15,1.9,14
2018/1/27 1:06,1.2,12,1.2,12,5,13
2018/1/27 1:07,1.3,11,1.3,12,2.6,11
2018/1/27 1:08,1.4,12,1.4,12,3,15
2018/1/27 1:09,1.5,12,1.5,12,3.3,15
2018/1/27 1:10,1.5,12,1.5,12,2.2,10
2018/1/27 1:11,1.5,12,1.5,12,2.4,10
2018/1/27 1:12,1.5,12,1.5,12,2.9,10
2018/1/27 1:13,1.4,12,1.5,12,2.4,12
2018/1/27 1:14,1.5,11,1.5,12,4.4,9
2018/1/27 1:15,1.5,11,1.5,12,3.1,10
2018/1/27 1:16,1.3,11,1.5,12,1.3,10
2018/1/27 1:17,1.3,10,1.4,12,2.9,10
2018/1/27 1:18,1.2,10,1.3,12,2.5,9
2018/1/27 1:19,1,10,1.2,12,0.8,12
2018/1/27 1:20,0.9,10,1,12,1,8
2018/1/27 1:21,0.9,10,0.9,12,2.5,11
2018/1/27 1:22,0.9,9,0.9,12,3.9,10
2018/1/27 1:23,1.2,10,1.2,11,5.8,11
2018/1/27 1:24,1.2,10,1.3,11,3.9,10
2018/1/27 1:25,1.1,10,1.2,11,0.5,11
2018/1/27 1:26,1.1,10,1.1,11,1.1,8
2018/1/27 1:27,1.1,10,1.1,10,1.8,10
2018/1/27 1:28,1.1,10,1.1,10,3.6,8
2018/1/27 1:29,1.3,9,1.3,10,4.1,8
2018/1/27 1:30,1.5,10,1.5,10,2.1,11
2018/1/27 1:31,1.5,10,1.5,10,1.9,10
2018/1/27 1:32,1.4,10,1.5,10,2.7,10
2018/1/27 1:33,1.1,9,1.4,10,2.2,9
2018/1/27 1:34,1.1,9,1.1,10,2.9,9
2018/1/27 1:35,1.2,9,1.2,10,3,9
2018/1/27 1:36,1.3,9,1.3,10,3.2,9
2018/1/27 1:37,1.4,9,1.4,10,2.6,9
2018/1/27 1:38,1.3,9,1.4,10,2.2,10
2018/1/27 1:39,1.2,9,1.3,10,2.4,10
2018/1/27 1:40,1.2,9,1.2,10,2,9
2018/1/27 1:41,1.2,9,1.2,10,2.6,9
2018/1/27 1:42,1.3,9,1.3,10,3,9
2018/1/27 1:43,1.3,9,1.3,9,2.4,10
2018/1/27 1:44,1.4,9,1.4,9,5.1,9
2018/1/27 1:45,1.5,9,1.5,9,4.7,10
2018/1/27 1:46,1.5,9,1.5,9,3.6,10
2018/1/27 1:47,1.6,9,1.6,9,4.2,9
2018/1/27 1:48,1.7,9,1.7,9,2.9,8
2018/1/27 1:49,1.6,9,1.7,9,1.5,10
2018/1/27 1:50,1.6,10,1.6,9,1.5,13
2018/1/27 1:51,1.7,10,1.7,9,3.7,12
2018/1/27 1:52,1.7,10,1.7,9,3,13
2018/1/27 1:53,1.7,10,1.7,9,3.7,10
2018/1/27 1:54,1.7,10,1.8,10,4.4,9
2018/1/27 1:55,1.6,10,1.7,10,3.9,9
2018/1/27 1:56,1.5,11,1.6,10,1.3,15
2018/1/27 1:57,1.4,11,1.5,10,2,14
2018/1/27 1:58,1.2,12,1.4,10,1.5,6
2018/1/27 1:59,1.3,11,1.3,10,2.5,9
2018/1/27 2:00,1.4,11,1.4,10,3.3,10
2018/1/27 2:01,1.3,10,1.4,10,3,7
2018/1/27 2:02,1.2,10,1.3,10,2.2,11
2018/1/27 2:03,1.3,10,1.3,10,3.5,11
2018/1/27 2:04,1.2,10,1.3,10,2.7,12
2018/1/27 2:05,1.1,10,1.1,10,4.1,16
2018/1/27 2:06,1.3,11,1.3,11,4.3,16
2018/1/27 2:07,1.2,10,1.3,12,0.4,15
2018/1/27 2:08,1.2,11,1.2,11,4.8,8
2018/1/27 2:09,1.3,11,1.3,11,3.5,8
2018/1/27 2:10,1.3,11,1.3,11,3.2,14
2018/1/27 2:11,1.3,12,1.3,10,3.2,12
2018/1/27 2:12,1.3,13,1.3,10,2,13
2018/1/27 2:13,1.1,14,1.3,10,0.6,2
2018/1/27 2:14,1.1,13,1.2,11,0.9,11
2018/1/27 2:15,1.1,13,1.1,11,1.9,9
2018/1/27 2:16,1,12,1.1,11,3.2,10
2018/1/27 2:17,1.2,11,1.2,11,3.2,11
2018/1/27 2:18,1.3,12,1.4,11,3.9,13
2018/1/27 2:19,1.3,12,1.3,11,2.4,13
2018/1/27 2:20,1.3,12,1.3,11,2.4,15
2018/1/27 2:21,1.2,12,1.2,11,1.6,16
2018/1/27 2:22,1.1,12,1.2,11,1.1,15
2018/1/27 2:23,1.1,11,1.1,11,0.6,16
2018/1/27 2:24,1.1,11,1.1,11,0.4,7
2018/1/27 2:25,1,11,1.1,11,1.1,10
2018/1/27 2:26,0.9,11,1,11,1.5,12
2018/1/27 2:27,0.8,12,0.9,11,2.2,1
2018/1/27 2:28,0.7,11,0.8,12,2.2,8
2018/1/27 2:29,0.5,9,0.7,12,1.8,6
2018/1/27 2:30,0.5,9,0.5,12,2.7,10
2018/1/27 2:31,0.6,9,0.6,12,2.5,10
2018/1/27 2:32,0.7,9,0.7,12,3.5,10
2018/1/27 2:33,0.9,9,0.9,11,3.5,9
2018/1/27 2:34,1.1,10,1.1,11,3.3,9
2018/1/27 2:35,1.3,9,1.3,9,2.7,6
2018/1/27 2:36,1.3,8,1.3,9,3.3,7
2018/1/27 2:37,1.4,8,1.4,8,2.7,1
2018/1/27 2:38,1.5,9,1.5,9,5.7,16
2018/1/27 2:39,1.8,9,1.8,9,4.9,1
2018/1/27 2:40,1.8,9,1.8,9,2.4,10
2018/1/27 2:41,1.9,8,1.9,8,5.5,10
2018/1/27 2:42,2,8,2.1,8,6.1,9
2018/1/27 2:43,2.1,9,2.1,8,4.2,12
2018/1/27 2:44,2.3,10,2.3,10,4.4,13
2018/1/27 2:45,2.5,12,2.5,11,4.8,11
2018/1/27 2:46,2.6,12,2.6,12,4.4,10
2018/1/27 2:47,2.8,11,2.8,11,4.3,11
2018/1/27 2:48,2.8,11,2.9,11,3.6,11
2018/1/27 2:49,2.8,11,2.8,11,4.4,14
2018/1/27 2:50,3,12,3,11,3.9,14
2018/1/27 2:51,3,12,3.1,12,3.5,12
2018/1/27 2:52,2.8,12,3,12,2.9,10
2018/1/27 2:53,2.6,12,2.8,12,2.2,10
2018/1/27 2:54,2.5,12,2.6,12,2.7,12
2018/1/27 2:55,2.2,12,2.4,12,2.4,12
2018/1/27 2:56,2.1,12,2.2,12,2.7,13
2018/1/27 2:57,2,12,2.1,12,2.7,13
2018/1/27 2:58,1.9,12,2,12,3.2,11
2018/1/27 2:59,1.8,12,1.9,12,2.6,11
2018/1/27 3:00,1.7,12,1.8,12,2.6,15
2018/1/27 3:01,1.5,12,1.7,12,2.5,16
2018/1/27 3:02,1.5,12,1.5,12,2.1,15
2018/1/27 3:03,1.5,12,1.5,12,1.4,9
2018/1/27 3:04,1.4,12,1.5,12,2.2,11
2018/1/27 3:05,1.5,12,1.5,12,3.2,10
2018/1/27 3:06,1.4,11,1.5,12,2,11
2018/1/27 3:07,1.5,11,1.5,12,4.4,11
2018/1/27 3:08,1.8,11,1.8,12,5.4,10
2018/1/27 3:09,1.8,11,1.8,12,4.7,11
2018/1/27 3:10,2,10,2,11,4.4,11
2018/1/27 3:11,2.1,10,2.1,10,5.2,11
2018/1/27 3:12,2.4,10,2.4,10,5.7,10
2018/1/27 3:13,2.6,10,2.6,10,5.2,10
2018/1/27 3:14,2.9,10,2.9,10,5.8,10
2018/1/27 3:15,3.1,10,3.1,10,6.7,10
2018/1/27 3:16,3.3,10,3.3,10,5.6,9
2018/1/27 3:17,3.3,10,3.3,10,6.2,9
2018/1/27 3:18,3.1,10,3.2,10,5.1,9
2018/1/27 3:19,3.1,10,3.1,10,3.7,10
2018/1/27 3:20,3.3,10,3.3,10,7.5,10
2018/1/27 3:21,3.5,10,3.5,10,6.9,10
2018/1/27 3:22,3.4,10,3.4,10,4.7,10
2018/1/27 3:23,3.3,10,3.4,10,6.3,10
2018/1/27 3:24,3.1,10,3.3,10,4.8,10
2018/1/27 3:25,3,10,3.1,10,4.8,9
2018/1/27 3:26,3,10,3,10,5.6,10
2018/1/27 3:27,3,10,3,10,5.1,9
2018/1/27 3:28,3.1,10,3.1,10,6.4,10
2018/1/27 3:29,3.1,10,3.1,10,6.3,10
2018/1/27 3:30,2.9,10,3.1,10,5.1,12
2018/1/27 3:31,2.5,10,2.9,10,2.9,12
2018/1/27 3:32,2.5,10,2.5,10,2.5,8
2018/1/27 3:33,2.4,10,2.5,10,4.4,10
2018/1/27 3:34,2.5,10,2.5,10,5.1,9
2018/1/27 3:35,2.6,10,2.6,10,4.8,11
2018/1/27 3:36,2.4,10,2.5,10,4.3,10
2018/1/27 3:37,2.4,10,2.5,10,5.1,10
2018/1/27 3:38,2.4,10,2.4,10,4.8,10
2018/1/27 3:39,2.4,10,2.4,10,4.2,11
2018/1/27 3:40,2.2,11,2.4,10,2.2,14
2018/1/27 3:41,2.2,11,2.2,10,3.1,16
2018/1/27 3:42,2.2,11,2.2,10,2.2,14
2018/1/27 3:43,2.2,11,2.2,10,3.3,12
2018/1/27 3:44,2.1,12,2.2,10,3.1,13
2018/1/27 3:45,2,12,2.1,10,3.3,10
2018/1/27 3:46,2,12,2,10,4.2,12
2018/1/27 3:47,2,12,2,10,2.9,11
2018/1/27 3:48,2,12,2,10,5.4,11
2018/1/27 3:49,1.9,12,2,10,6.2,9
2018/1/27 3:50,2,12,2,11,4.4,12
2018/1/27 3:51,2.1,11,2.1,11,4.2,9
2018/1/27 3:52,2.3,11,2.3,11,6.1,10
2018/1/27 3:53,2.4,11,2.4,11,6.2,11
2018/1/27 3:54,2.6,11,2.6,11,5.6,9
2018/1/27 3:55,2.6,11,2.6,11,3.7,10
2018/1/27 3:56,2.5,11,2.6,11,4.5,14
2018/1/27 3:57,2.5,11,2.5,11,3.2,13
2018/1/27 3:58,2.4,11,2.5,11,3.9,9
2018/1/27 3:59,2.4,11,2.4,11,3.5,10
2018/1/27 4:00,2.4,11,2.5,11,5.2,9
2018/1/27 4:01,2.3,11,2.4,11,2.4,13
2018/1/27 4:02,2.1,12,2.3,11,2.9,14
2018/1/27 4:03,1.9,12,2.1,11,3,12
2018/1/27 4:04,1.9,11,1.9,11,4.9,10
2018/1/27 4:05,1.9,12,1.9,11,3.9,14
2018/1/27 4:06,1.9,12,1.9,11,3.9,13
2018/1/27 4:07,1.8,12,1.9,11,3,13
2018/1/27 4:08,1.8,12,1.8,11,2.9,13
2018/1/27 4:09,1.8,12,1.8,11,3.5,11
2018/1/27 4:10,1.7,12,1.8,11,1.5,12
2018/1/27 4:11,1.8,12,1.8,11,4.3,10
2018/1/27 4:12,1.7,12,1.7,12,3.2,9
2018/1/27 4:13,1.7,12,1.7,12,3.7,11
2018/1/27 4:14,1.6,12,1.7,11,3.6,13
2018/1/27 4:15,1.8,12,1.8,12,5,13
2018/1/27 4:16,1.9,12,1.9,12,5.1,13
2018/1/27 4:17,1.9,12,1.9,12,2.6,12
2018/1/27 4:18,1.9,12,1.9,12,3.2,13
2018/1/27 4:19,1.9,12,1.9,12,2.2,10
2018/1/27 4:20,1.9,12,1.9,12,2.7,9
2018/1/27 4:21,1.8,12,1.9,12,3.8,10
2018/1/27 4:22,1.9,12,1.9,12,4.1,10
2018/1/27 4:23,1.9,12,1.9,12,4.5,9
2018/1/27 4:24,1.8,12,1.9,12,2,8
2018/1/27 4:25,1.8,12,1.9,12,5.8,15
2018/1/27 4:26,1.8,11,1.8,12,3.1,10
2018/1/27 4:27,1.7,11,1.8,12,2.6,9
2018/1/27 4:28,1.7,11,1.7,12,3.3,10
2018/1/27 4:29,1.8,11,1.8,12,3.5,10
2018/1/27 4:30,1.9,11,1.9,12,3.9,10
2018/1/27 4:31,1.9,11,1.9,12,3.5,8
2018/1/27 4:32,2,11,2,11,3.5,10
2018/1/27 4:33,2.1,11,2.1,11,4.7,10
2018/1/27 4:34,2.2,11,2.2,11,3.9,11
2018/1/27 4:35,2.1,11,2.2,11,2.7,12
2018/1/27 4:36,2,11,2.1,11,3,9
2018/1/27 4:37,2,11,2,11,2.7,12
2018/1/27 4:38,2.1,11,2.1,11,4.3,10
2018/1/27 4:39,2.3,11,2.3,11,5.7,10
2018/1/27 4:40,2.5,11,2.5,11,6,10
2018/1/27 4:41,2.6,11,2.6,11,5,11
2018/1/27 4:42,2.7,11,2.7,11,4.5,10
2018/1/27 4:43,2.5,11,2.7,11,2.6,12
2018/1/27 4:44,2.4,11,2.5,11,3.3,9
2018/1/27 4:45,2.5,11,2.5,11,7.2,10
2018/1/27 4:46,2.8,10,2.8,10,6.3,10
2018/1/27 4:47,3,10,3,10,5.1,10
2018/1/27 4:48,2.9,10,3,10,3.7,12
2018/1/27 4:49,2.8,10,2.9,10,4.8,9
2018/1/27 4:50,2.9,10,2.9,10,7.1,9
2018/1/27 4:51,2.8,10,2.8,10,5.8,9
2018/1/27 4:52,2.9,10,2.9,10,5.2,10
2018/1/27 4:53,2.9,10,2.9,10,3.1,13
2018/1/27 4:54,2.9,10,3,10,3.9,10
2018/1/27 4:55,3,11,3,10,5.8,11
2018/1/27 4:56,2.9,11,3,10,4.9,11
2018/1/27 4:57,2.8,11,2.9,10,2.7,10
2018/1/27 4:58,2.8,11,2.8,10,4.3,11
2018/1/27 4:59,3,11,3,10,6.2,10
2018/1/27 5:00,2.9,11,3,10,6.4,10
2018/1/27 5:01,3,11,3,10,5.1,10
2018/1/27 5:02,2.8,11,3,10,3.7,10
2018/1/27 5:03,2.7,11,2.8,10,0.8,12
2018/1/27 5:04,2.6,11,2.7,11,2.4,12
2018/1/27 5:05,2.3,11,2.5,11,2.2,12
2018/1/27 5:06,2,11,2.3,11,1.5,15
2018/1/27 5:07,1.9,11,2,11,0.9,16
2018/1/27 5:08,1.7,11,1.9,11,2.5,8
2018/1/27 5:09,1.3,11,1.7,11,2.2,8
2018/1/27 5:10,1,12,1.3,11,1.4,15
2018/1/27 5:11,0.7,12,1,11,2.2,8
2018/1/27 5:12,0.6,12,0.7,11,2.4,8
2018/1/27 5:13,0.9,11,0.9,11,5.5,11
2018/1/27 5:14,1,11,1,11,5.1,10
2018/1/27 5:15,1.1,12,1.1,11,3.6,15
2018/1/27 5:16,1.1,12,1.1,11,2,11
2018/1/27 5:17,1.3,11,1.3,11,3.5,9
2018/1/27 5:18,1.4,11,1.4,11,3.9,9
2018/1/27 5:19,1.5,11,1.5,11,2.7,15
2018/1/27 5:20,1.6,12,1.6,12,2,12
2018/1/27 5:21,1.7,12,1.7,12,3.5,12
2018/1/27 5:22,1.8,12,1.8,12,2.2,9
2018/1/27 5:23,1.6,12,1.8,12,2.9,9
2018/1/27 5:24,1.6,11,1.6,12,2.7,11
2018/1/27 5:25,1.6,11,1.7,12,2.7,11
2018/1/27 5:26,1.5,11,1.6,12,0.8,12
2018/1/27 5:27,1.4,12,1.5,12,2.6,16
2018/1/27 5:28,1.3,12,1.4,12,2.1,1
2018/1/27 5:29,1.3,12,1.3,12,1.6,3
2018/1/27 5:30,1.2,12,1.3,12,1.4,4
2018/1/27 5:31,1,12,1.2,12,1.1,13
2018/1/27 5:32,1,12,1,12,1.4,10
2018/1/27 5:33,1,12,1.1,11,2.9,11
2018/1/27 5:34,1,10,1,11,2.2,9
2018/1/27 5:35,0.9,8,1,11,1.9,7
2018/1/27 5:36,1,8,1,11,1.6,11
2018/1/27 5:37,1,8,1,12,1.4,9
2018/1/27 5:38,0.8,8,1,12,0.8,3
2018/1/27 5:39,0.8,9,0.8,12,0.9,1
2018/1/27 5:40,0.9,10,0.9,12,3.2,16
2018/1/27 5:41,1,10,1,12,1.8,14
2018/1/27 5:42,0.9,11,1,12,0.6,11
2018/1/27 5:43,0.8,10,0.9,12,1.5,8
2018/1/27 5:44,0.7,12,0.8,10,2.1,1
2018/1/27 5:45,0.8,14,0.8,8,1.9,1
2018/1/27 5:46,0.8,16,0.8,8,2.2,2
2018/1/27 5:47,0.9,16,0.9,8,1.8,7
2018/1/27 5:48,0.9,16,0.9,10,1.1,6
2018/1/27 5:49,0.9,1,0.9,10,1.6,6
2018/1/27 5:50,0.8,2,0.9,10,1.1,4
2018/1/27 5:51,0.8,3,0.8,10,2,3
2018/1/27 5:52,0.8,3,0.8,10,1.3,16
2018/1/27 5:53,0.7,3,0.8,16,1,8
2018/1/27 5:54,0.7,4,0.7,16,0.6,8
2018/1/27 5:55,0.7,4,0.7,16,2.7,5
2018/1/27 5:56,0.9,5,0.9,16,3.8,5
2018/1/27 5:57,1,5,1,5,3.2,6
2018/1/27 5:58,1.2,5,1.2,5,3,6
2018/1/27 5:59,1.2,5,1.2,5,2.4,4
2018/1/27 6:00,1.3,5,1.3,4,3,3
2018/1/27 6:01,1.4,5,1.4,5,2.9,4
2018/1/27 6:02,1.5,5,1.5,5,1.8,4
2018/1/27 6:03,1.5,5,1.5,5,1.3,11
2018/1/27 6:04,1.6,5,1.6,5,1.5,10
2018/1/27 6:05,1.4,5,1.6,5,1.4,7
2018/1/27 6:06,1.4,6,1.4,5,3,7
2018/1/27 6:07,1.3,6,1.4,5,3.2,8
2018/1/27 6:08,1.3,6,1.3,5,2.9,8
2018/1/27 6:09,1.4,7,1.4,5,2.6,8
2018/1/27 6:10,1.4,7,1.4,5,2.7,7
2018/1/27 6:11,1.4,7,1.4,5,3,8
2018/1/27 6:12,1.4,8,1.5,5,2.9,8
2018/1/27 6:13,1.4,7,1.4,5,1.4,6
2018/1/27 6:14,1.5,7,1.5,5,1.5,4
2018/1/27 6:15,1.5,7,1.5,7,2.1,5
2018/1/27 6:16,1.4,6,1.5,7,1.6,5
2018/1/27 6:17,1.3,6,1.4,7,1.6,5
2018/1/27 6:18,1.1,5,1.3,7,0.3,16
2018/1/27 6:19,1,5,1.1,7,0.3,6
2018/1/27 6:20,0.8,5,0.9,7,0.3,11
2018/1/27 6:21,0.6,4,0.8,7,0.8,1
2018/1/27 6:22,0.5,4,0.6,7,0.3,4
2018/1/27 6:23,0.5,4,0.5,7,0.9,7
2018/1/27 6:24,0.4,4,0.5,7,1,7
2018/1/27 6:25,0.4,4,0.4,7,1,7
2018/1/27 6:26,0.3,4,0.3,6,1.1,16
2018/1/27 6:27,0.3,3,0.3,6,0.9,1
2018/1/27 6:28,0.3,4,0.3,5,0.8,1
2018/1/27 6:29,0.3,4,0.3,5,0,3
2018/1/27 6:30,0.3,5,0.3,5,0.8,7
2018/1/27 6:31,0.4,5,0.4,4,1.3,8
2018/1/27 6:32,0.4,5,0.4,4,0.8,14
2018/1/27 6:33,0.6,5,0.6,5,3.1,15
2018/1/27 6:34,0.6,4,0.6,5,2.9,15
2018/1/27 6:35,0.7,3,0.7,4,2,11
2018/1/27 6:36,0.9,8,0.9,8,4.4,9
2018/1/27 6:37,1.2,9,1.2,9,5.4,9
2018/1/27 6:38,1.4,9,1.4,9,3.6,9
2018/1/27 6:39,1.5,10,1.5,9,2.5,14
2018/1/27 6:40,1.7,11,1.7,11,3.5,16
2018/1/27 6:41,1.6,12,1.7,11,3.7,15
2018/1/27 6:42,1.7,11,1.7,11,1.4,7
2018/1/27 6:43,1.5,10,1.7,11,1,12
2018/1/27 6:44,1.4,9,1.5,11,0.5,7
2018/1/27 6:45,1.3,9,1.4,11,0.9,16
2018/1/27 6:46,1.2,11,1.3,11,1.1,16
2018/1/27 6:47,0.8,4,1.1,11,0.4,5
2018/1/27 6:48,0.7,3,0.8,11,0.6,6
2018/1/27 6:49,0.6,3,0.6,11,1.9,16
2018/1/27 6:50,0.6,3,0.6,11,3.1,16
2018/1/27 6:51,0.7,2,0.7,12,3.7,15
2018/1/27 6:52,0.8,1,0.8,11,2.5,16
2018/1/27 6:53,0.9,2,0.9,10,2.1,7
2018/1/27 6:54,1,2,1,9,2.6,3
2018/1/27 6:55,1.1,2,1.1,9,2.4,3
2018/1/27 6:56,1.1,2,1.1,10,0.9,3
2018/1/27 6:57,1.1,2,1.1,2,0.8,12
2018/1/27 6:58,1.2,1,1.2,1,2,12
2018/1/27 6:59,1.3,1,1.3,1,1.9,5
2018/1/27 7:00,1.3,2,1.3,1,3.5,7
2018/1/27 7:01,1.2,3,1.3,1,2.7,9
2018/1/27 7:02,1.1,4,1.2,1,1.4,16
2018/1/27 7:03,1.1,2,1.1,1,2.2,16
2018/1/27 7:04,1,2,1.1,1,2.2,4
2018/1/27 7:05,1.1,4,1.1,1,2.9,5
2018/1/27 7:06,1.1,6,1.1,1,2.1,6
2018/1/27 7:07,1.1,7,1.2,1,1,10
2018/1/27 7:08,1.1,7,1.1,1,2.2,10
2018/1/27 7:09,1.2,7,1.2,1,2.7,10
2018/1/27 7:10,1.1,6,1.2,2,3,3
2018/1/27 7:11,1.1,5,1.2,3,3.1,3
2018/1/27 7:12,1.2,5,1.2,7,1.1,1
2018/1/27 7:13,1.1,4,1.1,7,1.4,3
2018/1/27 7:14,1.1,4,1.1,7,0.9,16
2018/1/27 7:15,0.9,5,1,7,0.8,9
2018/1/27 7:16,0.9,5,0.9,7,1.5,9
2018/1/27 7:17,0.9,4,0.9,7,1.8,16
2018/1/27 7:18,0.9,2,0.9,7,1.5,15
2018/1/27 7:19,0.9,1,0.9,7,2.1,16
2018/1/27 7:20,0.9,16,0.9,6,2.4,16
2018/1/27 7:21,0.9,15,0.9,5,3.2,12
2018/1/27 7:22,1.1,14,1.1,5,3,10
2018/1/27 7:23,1.3,13,1.3,14,4.5,11
2018/1/27 7:24,1.5,13,1.5,13,4.2,15
2018/1/27 7:25,1.6,14,1.6,13,3.8,16
2018/1/27 7:26,1.7,14,1.7,14,1.8,9
2018/1/27 7:27,1.7,13,1.8,14,2.1,9
2018/1/27 7:28,1.7,13,1.7,14,0.8,11
2018/1/27 7:29,1.6,12,1.6,14,1.1,10
2018/1/27 7:30,1.5,12,1.6,14,1,11
2018/1/27 7:31,1.4,12,1.5,14,1.6,13
2018/1/27 7:32,1.2,12,1.4,14,1.3,14
2018/1/27 7:33,1,12,1.2,14,3.3,13
2018/1/27 7:34,1,12,1,14,4.1,12
2018/1/27 7:35,1.1,12,1.1,14,3.1,12
2018/1/27 7:36,1.2,12,1.2,14,3.5,11
2018/1/27 7:37,1.4,12,1.4,13,4.9,10
2018/1/27 7:38,1.5,12,1.5,13,3.1,12
2018/1/27 7:39,1.6,12,1.6,12,1.9,12
2018/1/27 7:40,1.7,12,1.7,12,2.1,14
2018/1/27 7:41,1.7,12,1.7,12,2.4,15
2018/1/27 7:42,1.8,12,1.8,12,2.4,12
2018/1/27 7:43,1.9,12,1.9,12,2.6,13
2018/1/27 7:44,1.9,12,1.9,12,2.5,13
2018/1/27 7:45,1.7,12,1.9,12,1.5,11
2018/1/27 7:46,1.5,12,1.7,12,0.6,12
2018/1/27 7:47,1.2,12,1.5,12,0.5,12
2018/1/27 7:48,1.1,13,1.2,12,1.6,11
2018/1/27 7:49,1.1,12,1.1,12,1.4,10
2018/1/27 7:50,1,12,1.1,12,2.1,10
2018/1/27 7:51,1,12,1,12,1.5,13
2018/1/27 7:52,1.1,12,1.1,12,3.6,9
2018/1/27 7:53,1.2,12,1.2,12,4.4,9
2018/1/27 7:54,1.2,11,1.2,12,3.3,11
2018/1/27 7:55,1.3,12,1.3,12,3.2,14
2018/1/27 7:56,1.4,12,1.4,12,3.1,13
2018/1/27 7:57,1.6,12,1.6,12,3.2,12
2018/1/27 7:58,1.7,11,1.7,12,3.2,10
2018/1/27 7:59,2.1,11,2.1,11,6,9
2018/1/27 8:00,2.3,11,2.3,11,5.1,9
2018/1/27 8:01,2.4,11,2.4,11,4.2,11
2018/1/27 8:02,2.4,11,2.4,11,3.1,10
2018/1/27 8:03,2.4,11,2.4,11,3.3,11
2018/1/27 8:04,2.5,11,2.5,11,4.4,11
2018/1/27 8:05,2.7,11,2.7,11,4.2,11
2018/1/27 8:06,2.7,11,2.7,11,3,14
2018/1/27 8:07,2.7,11,2.7,11,3.6,14
2018/1/27 8:08,2.7,11,2.7,11,3.1,13
2018/1/27 8:09,2.5,12,2.7,11,3.5,12
2018/1/27 8:10,2.5,12,2.5,11,3.5,11
2018/1/27 8:11,2.4,12,2.5,11,2.9,10
2018/1/27 8:12,2.4,12,2.4,11,2.9,10
2018/1/27 8:13,2.2,12,2.3,11,2.1,12
2018/1/27 8:14,2,12,2.2,11,1.8,15
2018/1/27 8:15,1.8,13,2,11,1.6,14
2018/1/27 8:16,1.7,13,1.8,11,1.4,14
2018/1/27 8:17,1.5,13,1.7,11,0.5,12
2018/1/27 8:18,1.5,13,1.5,12,3.9,14
2018/1/27 8:19,1.5,13,1.5,12,3.6,15
2018/1/27 8:20,1.4,13,1.5,12,3.7,11
2018/1/27 8:21,1.5,13,1.5,12,3.5,9
2018/1/27 8:22,1.5,13,1.5,12,3.1,12
2018/1/27 8:23,1.4,13,1.5,12,1.9,8
2018/1/27 8:24,1.4,12,1.4,12,3.1,8
2018/1/27 8:25,1.6,12,1.6,13,4.7,10
2018/1/27 8:26,1.9,11,1.9,11,5.2,10
2018/1/27 8:27,2,11,2,11,3.2,9
2018/1/27 8:28,2,11,2,11,3.3,9
2018/1/27 8:29,1.9,10,2,11,2.7,10
2018/1/27 8:30,1.9,10,1.9,11,3.5,8
2018/1/27 8:31,1.7,9,1.9,11,2,6
2018/1/27 8:32,1.6,9,1.7,11,2,9
2018/1/27 8:33,1.7,9,1.7,11,3,9
2018/1/27 8:34,1.7,9,1.8,11,3,10
2018/1/27 8:35,1.6,9,1.8,11,2.6,8
2018/1/27 8:36,1.4,9,1.5,11,2.7,10
2018/1/27 8:37,1.5,9,1.5,11,3.3,10
2018/1/27 8:38,1.4,9,1.5,11,2.7,10
2018/1/27 8:39,1.4,9,1.4,10,3.9,10
2018/1/27 8:40,1.3,9,1.4,10,2.9,9
2018/1/27 8:41,1.4,10,1.4,9,2.5,10
2018/1/27 8:42,1.3,10,1.4,9,2,12
2018/1/27 8:43,1.3,10,1.3,9,2.9,9
2018/1/27 8:44,1.3,10,1.3,9,3,9
2018/1/27 8:45,1.3,10,1.3,9,1.6,8
2018/1/27 8:46,1.1,10,1.3,9,0.5,9
2018/1/27 8:47,1,10,1.1,9,1,14
2018/1/27 8:48,0.9,10,0.9,9,0.6,12
2018/1/27 8:49,0.9,10,0.9,9,3.1,12
2018/1/27 8:50,1,11,1,10,3.7,11
2018/1/27 8:51,1.3,11,1.3,10,4.5,11
2018/1/27 8:52,1.5,11,1.5,11,5.6,10
2018/1/27 8:53,1.7,11,1.7,11,5.2,10
2018/1/27 8:54,1.8,11,1.8,11,4.3,9
2018/1/27 8:55,2,11,2,11,4.1,10
2018/1/27 8:56,2.2,11,2.2,11,3.2,9
2018/1/27 8:57,2.4,11,2.4,11,3.7,10
2018/1/27 8:58,2.7,10,2.7,10,4.4,8
2018/1/27 8:59,2.6,10,2.7,10,3.2,8
2018/1/27 9:00,2.5,10,2.6,10,2.2,12
2018/1/27 9:01,2.3,10,2.5,10,2.5,12
2018/1/27 9:02,2.1,10,2.2,10,2.9,11
2018/1/27 9:03,1.8,10,2.1,10,1.6,8
2018/1/27 9:04,1.7,10,1.8,10,2.7,10
2018/1/27 9:05,1.7,10,1.7,10,3.3,12
2018/1/27 9:06,1.7,11,1.7,10,3.3,12
2018/1/27 9:07,1.7,10,1.7,10,4.2,10
2018/1/27 9:08,1.8,11,1.8,10,5.8,10
2018/1/27 9:09,2.1,11,2.1,10,6.1,10
2018/1/27 9:10,2.2,10,2.2,10,3.5,9
2018/1/27 9:11,2.2,10,2.2,10,2.4,10
2018/1/27 9:12,2.1,10,2.2,11,0.8,12
2018/1/27 9:13,2.1,10,2.1,11,1.3,8
2018/1/27 9:14,2.1,10,2.1,11,2,9
2018/1/27 9:15,2,10,2.1,11,3.2,11
2018/1/27 9:16,2,10,2.1,11,4.5,9
2018/1/27 9:17,2.1,10,2.1,11,4.7,9
2018/1/27 9:18,1.9,10,2.1,11,4.3,10
2018/1/27 9:19,1.7,10,1.9,11,3.6,9
2018/1/27 9:20,1.6,10,1.7,10,3.9,9
2018/1/27 9:21,1.7,10,1.7,10,5.2,10
2018/1/27 9:22,2,9,2,10,4.2,9
2018/1/27 9:23,2.1,9,2.1,10,3.6,8
2018/1/27 9:24,2.2,9,2.2,9,3.3,8
2018/1/27 9:25,2.2,9,2.2,9,3.7,9
2018/1/27 9:26,2.3,9,2.3,9,4.3,11
2018/1/27 9:27,2.3,9,2.3,9,5.7,9
2018/1/27 9:28,2.2,9,2.3,9,4.9,9
2018/1/27 9:29,2.2,9,2.2,9,2.9,10
2018/1/27 9:30,2.3,9,2.3,9,4.2,11
2018/1/27 9:31,2.4,10,2.4,10,6.7,9
2018/1/27 9:32,2.5,10,2.5,10,7.1,9
2018/1/27 9:33,2.5,10,2.5,10,6.1,9
2018/1/27 9:34,2.6,10,2.6,10,5.7,9
2018/1/27 9:35,2.7,10,2.7,10,6.3,10
2018/1/27 9:36,2.9,10,2.9,10,6.2,9
2018/1/27 9:37,3,10,3,10,6.2,10
2018/1/27 9:38,3.2,10,3.2,10,6.4,10
2018/1/27 9:39,3.4,10,3.4,10,5.2,9
2018/1/27 9:40,3.5,10,3.5,10,4.5,10
2018/1/27 9:41,3.3,10,3.4,10,3.6,9
2018/1/27 9:42,3.2,10,3.3,10,3.8,11
2018/1/27 9:43,3.2,10,3.2,10,4.1,11
2018/1/27 9:44,3.2,10,3.2,10,2.9,11
2018/1/27 9:45,3,10,3.2,10,3.8,11
2018/1/27 9:46,2.9,10,3,10,4.5,10
2018/1/27 9:47,2.9,10,2.9,10,4.5,11
2018/1/27 9:48,2.8,10,2.9,10,3.3,9
2018/1/27 9:49,2.7,10,2.7,10,3.8,9
2018/1/27 9:50,2.5,10,2.7,10,3.2,9
2018/1/27 9:51,2.6,10,2.6,10,4.7,10
2018/1/27 9:52,2.7,10,2.7,10,4.9,10
2018/1/27 9:53,2.7,10,2.7,10,3.7,10
2018/1/27 9:54,2.8,10,2.8,10,4.1,11
2018/1/27 9:55,2.8,10,2.9,10,5.1,10
2018/1/27 9:56,2.6,10,2.8,10,3.7,10
2018/1/27 9:57,2.6,10,2.6,10,5.5,11
2018/1/27 9:58,2.8,10,2.8,10,6.5,10
2018/1/27 9:59,2.9,10,2.9,10,5.4,10
2018/1/27 10:00,3,10,3,10,5.1,10
2018/1/27 10:01,3,10,3,10,5.8,9
2018/1/27 10:02,3,10,3,10,4.2,11
2018/1/27 10:03,3.1,10,3.1,10,6.1,10
2018/1/27 10:04,3.2,10,3.2,10,6.7,10
2018/1/27 10:05,3.3,10,3.3,10,6.2,10
2018/1/27 10:06,3.4,10,3.4,10,6,10
2018/1/27 10:07,3.2,10,3.4,10,5,13
2018/1/27 10:08,3.1,10,3.2,10,5.4,10
2018/1/27 10:09,3.1,10,3.2,10,5.8,10
2018/1/27 10:10,3.1,10,3.2,10,5,10
2018/1/27 10:11,3,11,3.1,10,4.2,12
2018/1/27 10:12,2.9,11,3,10,4.4,9
2018/1/27 10:13,2.8,11,2.9,10,3.5,8
2018/1/27 10:14,2.5,11,2.7,10,3.3,10
2018/1/27 10:15,2.4,11,2.5,10,3.5,10
2018/1/27 10:16,2.3,11,2.4,10,3.3,11
2018/1/27 10:17,2.2,10,2.3,10,2.9,10
2018/1/27 10:18,2,10,2.2,10,2.6,11
2018/1/27 10:19,2,10,2,10,3.7,11
2018/1/27 10:20,1.9,10,2,10,3.1,10
2018/1/27 10:21,2,10,2,11,4.4,10
2018/1/27 10:22,2.1,10,2.1,11,4.8,10
2018/1/27 10:23,2.1,10,2.1,11,4.4,9
2018/1/27 10:24,2.2,10,2.2,11,4.2,11
2018/1/27 10:25,2.3,10,2.3,11,4.2,9
2018/1/27 10:26,2.4,10,2.4,10,3.9,10
2018/1/27 10:27,2.4,10,2.5,10,3.5,9
2018/1/27 10:28,2.4,10,2.4,10,2.5,9
2018/1/27 10:29,2.3,10,2.4,10,3.3,8
2018/1/27 10:30,2.2,10,2.3,10,3.3,10
2018/1/27 10:31,2.1,10,2.2,10,4.4,10
2018/1/27 10:32,2,10,2.1,10,4.3,10
2018/1/27 10:33,2.1,10,2.1,10,3.8,11
2018/1/27 10:34,2,10,2.1,10,3.1,9
2018/1/27 10:35,1.8,10,1.9,10,2.5,10
2018/1/27 10:36,1.7,10,1.8,10,2.2,12
2018/1/27 10:37,1.7,11,1.7,10,2,13
2018/1/27 10:38,1.7,11,1.7,10,2,11
2018/1/27 10:39,1.6,11,1.7,10,1.5,13
2018/1/27 10:40,1.8,11,1.8,10,5,10
2018/1/27 10:41,1.9,11,1.9,10,4.9,10
2018/1/27 10:42,2,11,2,10,5.8,10
2018/1/27 10:43,2.1,11,2.1,10,5.5,11
2018/1/27 10:44,2.3,11,2.3,11,5.1,11
2018/1/27 10:45,2.6,11,2.6,11,4.5,10
2018/1/27 10:46,2.6,10,2.6,11,4.2,9
2018/1/27 10:47,2.7,10,2.7,10,3.3,10
2018/1/27 10:48,2.8,10,2.8,10,4.3,10
2018/1/27 10:49,3.1,10,3.1,10,6.1,10
2018/1/27 10:50,3.1,11,3.2,10,6,10
2018/1/27 10:51,3.1,11,3.1,10,6.7,10
2018/1/27 10:52,3,11,3.1,10,5.8,9
2018/1/27 10:53,2.9,10,3,10,5.6,9
2018/1/27 10:54,2.7,10,2.9,10,5.1,9
2018/1/27 10:55,2.5,10,2.7,10,4.1,9
2018/1/27 10:56,2.4,10,2.5,10,3.6,9
2018/1/27 10:57,2.4,10,2.4,10,3.7,10
2018/1/27 10:58,2.4,10,2.4,10,3.6,10
2018/1/27 10:59,2.2,10,2.4,10,4.2,9
2018/1/27 11:00,2.1,10,2.2,11,3.2,8
2018/1/27 11:01,2.1,10,2.2,11,4.2,8
2018/1/27 11:02,2.2,10,2.2,11,5.5,9
2018/1/27 11:03,2.2,10,2.3,10,3.7,10
2018/1/27 11:04,2.2,10,2.3,10,4.3,10
2018/1/27 11:05,2.1,10,2.2,10,2.1,10